Location: Newark
(42.9277°N, 71.8621°W)
Time: 07:39:02
(UTC+00:00)

Envisat - Pass Details

Date: 31 July 2021
Orbit: 764 x 766 km, 98.2° (Epoch: 25 September)

Event Time Altitude Azimuth Distance (km) Brightness Sun altitude
Rises 08:42:35 0° 33° (NNE) 3,242 7.7 -9.5°
Reaches altitude 10° 08:46:10 10° 59° (ENE) 2,309 7.2 -9.0°
Maximum altitude 08:48:39 14° 89° (E) 2,063 6.2 -8.6°
Drops below altitude 10° 08:51:08 10° 118° (ESE) 2,300 5.9 -8.2°
Sets 08:54:40 0° 145° (SE) 3,219 6.3 -7.7°
